Wind_Gust
21 21 21 21 21 20 21 20 20 20 20 21 21 21 21 21 21 21 22 22 23 24 25 26 26 27 27 28 29 28 27 23 26 20 13 12 7 6 8 8 9 11 14 13 13 12 10 10 10 10 12 7 10 12 11 14 11 8 21 24 24 21 25 17 23 20 9 16 9 18 21 20 22 17 16 14 17 14 9 17 14 24 20 28 28 31 28 26
21 21 21 22 21 21 22 22 22 21 21 21 21 21 21 21 21 21 22 23 23 24 25 25 27 27 28 28 29 28 26 20 21 18 22 9 8 9 8 8 9 8 11 11 14 14 14 12 10 10 11 11 6 11 10 15 16 19 16 23 30 23 25 12 17 13 15 17 24 23 21 20 25 24 18 18 12 12 19 24 27 27 22 28 30 30 28 27
22 22 22 22 22 22 22 22 22 21 22 21 21 22 21 22 22 22 22 22 23 24 24 25 26 27 28 28 28 27 22 22 16 10 6 8 7 7 8 9 5 7 6 10 12 13 15 15 16 14 8 13 12 12 16 20 17 19 17 26 28 17 17 16 16 18 16 15 22 24 23 17 19 28 19 18 6 14 21 23 28 36 27 26 25 28 30 29
22 23 22 22 22 22 22 23 22 22 22 22 22 22 22 22 22 22 22 22 23 23 24 25 27 28 29 29 29 26 17 17 9 6 7 11 7 7 9 8 6 6 7 10 13 18 15 17 13 12 12 12 12 16 19 19 27 17 26 28 24 16 19 21 20 18 18 15 17 27 24 26 24 21 20 18 19 12 9 24 30 33 37 35 33 29 27 27
23 23 23 23 23 23 23 23 23 23 22 23 23 23 23 23 23 23 23 23 23 24 23 25 26 27 28 29 30 20 20 6 8 4 8 10 10 9 10 8 8 5 6 11 15 15 16 15 12 10 10 11 11 12 21 16 21 14 25 22 19 13 23 13 17 24 24 20 19 18 28 33 21 22 19 23 26 15 16 14 32 40 38 37 32 28 21 21
23 23 23 24 24 24 24 24 24 24 24 24 24 24 23 23 23 23 23 24 23 23 23 24 25 26 27 29 28 16 9 9 6 7 11 12 12 9 10 9 9 7 7 11 12 15 16 10 10 10 8 8 9 18 14 19 14 28 19 22 23 24 17 10 21 22 20 29 25 23 26 27 22 21 22 15 21 11 15 18 30 39 35 29 28 26 23 20
24 24 24 25 24 24 25 25 25 25 25 25 25 25 24 24 24 24 24 23 23 23 23 24 23 26 25 23 26 15 9 22 16 9 15 15 12 10 11 10 9 8 9 12 13 13 8 11 8 8 10 12 14 20 14 15 19 22 32 17 21 19 26 19 19 14 23 24 28 28 16 28 26 27 22 20 14 14 9 12 28 37 43 34 33 30 32 28
24 24 25 25 25 25 25 26 25 25 25 26 26 25 25 25 25 25 24 24 23 24 24 23 22 23 22 20 22 12 14 18 15 11 16 14 12 11 11 8 7 8 10 10 9 11 11 12 9 8 13 14 7 14 12 17 18 28 36 17 19 19 19 20 27 28 17 17 24 23 26 26 33 30 15 19 15 16 12 9 31 40 35 33 33 30 27 25
23 24 24 25 25 25 24 25 25 25 25 25 25 24 24 24 24 25 25 24 24 23 23 23 24 20 17 12 13 14 16 12 15 16 15 12 12 11 9 8 5 7 9 10 7 10 9 6 12 9 7 13 14 19 18 15 24 25 21 18 17 15 16 21 20 25 29 31 17 18 29 30 31 27 28 25 28 26 11 22 31 36 30 31 34 34 32 33
24 24 24 24 24 24 25 25 26 25 26 26 25 24 24 24 24 23 24 24 23 22 21 22 21 18 15 14 11 7 16 7 10 18 17 14 13 9 10 9 9 9 10 8 10 8 8 11 12 15 13 15 12 17 12 18 20 15 14 17 19 17 18 14 26 24 25 31 22 25 21 24 25 36 37 24 25 24 18 24 29 34 31 31 29 31 31 33
24 24 24 25 25 25 25 26 26 26 26 26 26 26 26 25 24 24 23 23 22 22 20 21 19 15 13 10 8 14 13 15 14 17 15 9 11 11 7 9 6 11 9 10 10 8 11 14 13 15 13 15 15 14 14 18 15 20 21 18 17 17 21 23 20 23 24 31 30 27 26 20 18 22 39 31 21 25 21 24 25 28 30 31 28 29 23 29
24 25 25 25 25 25 26 26 27 28 27 27 27 26 27 26 25 24 24 23 22 21 20 17 17 14 14 14 14 28 10 17 21 18 19 16 14 12 12 9 4 7 10 13 12 12 12 13 14 13 14 18 11 17 17 14 16 20 19 24 19 17 32 24 31 25 19 29 20 24 24 31 29 30 27 31 23 26 26 29 23 29 29 26 23 24 25 24
25 25 25 25 26 26 27 27 27 28 28 28 28 27 27 27 26 26 25 24 21 21 19 19 13 9 12 17 33 33 27 26 25 26 25 17 14 13 13 12 10 7 8 12 12 12 13 13 14 16 13 14 13 19 18 26 21 19 18 19 18 22 28 22 24 23 22 23 16 22 37 34 41 33 28 26 23 14 18 28 19 18 23 23 23 23 20 19
26 25 26 26 27 27 27 28 29 29 29 30 30 29 29 29 28 27 27 26 26 23 18 16 10 10 14 24 23 20 23 23 21 23 23 17 12 14 11 9 9 9 7 9 10 8 13 11 12 15 14 14 16 13 19 20 18 17 14 15 21 18 30 16 28 23 28 20 14 22 37 34 33 36 31 25 17 18 17 13 20 24 19 23 24 21 23 21
26 26 27 27 27 27 28 29 29 30 30 32 32 31 30 30 31 28 28 25 23 19 16 11 12 10 13 27 17 31 36 22 18 25 21 14 15 15 12 9 12 12 12 9 11 8 9 11 12 14 13 10 14 15 16 13 11 12 13 25 22 23 17 16 17 25 36 24 19 18 37 36 25 29 29 29 18 17 22 18 14 18 25 25 23 23 24 24
26 27 27 27 27 28 28 29 29 30 31 32 33 34 34 33 29 29 27 23 23 19 13 14 17 14 13 29 19 13 11 16 23 28 23 14 13 12 8 10 9 8 8 11 10 11 10 10 13 7 15 16 13 10 9 13 15 17 18 16 24 18 17 18 23 16 28 26 20 31 38 21 24 23 24 31 29 17 22 23 18 17 23 25 22 23 22 20
27 27 28 28 28 28 29 29 30 31 30 32 36 34 33 32 30 27 23 21 16 10 11 12 10 15 10 12 17 16 15 19 17 14 19 17 17 15 12 10 12 10 9 10 9 8 11 15 7 12 9 12 7 9 7 13 17 23 19 25 15 23 19 28 11 22 20 32 28 34 43 17 7 12 13 17 33 24 30 26 25 18 18 22 23 21 22 23
27 28 28 28 28 28 30 30 31 31 30 32 33 31 44 36 30 18 14 14 11 12 15 15 10 9 33 19 16 13 11 14 9 15 18 20 18 15 10 10 6 10 12 13 13 16 12 15 10 8 5 12 12 11 22 30 31 22 18 14 17 17 21 21 27 21 20 30 34 26 33 29 21 7 23 32 22 34 37 35 26 15 18 20 21 21 22 24
27 28 28 28 28 29 30 30 32 30 30 30 30 30 35 27 14 9 9 9 9 6 9 15 12 15 11 10 17 13 12 13 9 17 16 14 14 13 10 5 9 12 13 12 12 17 13 9 6 6 15 13 20 21 23 19 10 17 17 12 12 18 25 32 24 17 22 23 36 32 33 32 29 24 18 13 26 28 33 35 34 16 20 23 22 22 23 23
27 27 28 28 28 28 30 29 30 31 30 22 26 29 17 18 13 9 7 7 15 14 15 12 26 18 17 19 18 15 14 11 16 12 10 10 15 12 11 11 9 12 15 14 10 18 11 14 14 17 20 19 17 19 21 19 19 19 19 21 22 22 20 17 23 19 22 29 28 33 28 19 27 33 30 25 10 13 25 28 28 25 20 24 23 23 24 24
27 27 28 28 28 29 29 29 29 29 29 20 18 18 13 16 18 18 16 20 21 21 24 26 24 24 28 15 15 17 19 13 8 10 12 20 17 13 10 10 8 12 13 13 13 6 16 12 18 21 20 19 19 18 20 23 21 23 23 22 25 23 24 22 23 25 26 28 23 22 26 31 30 24 30 32 25 18 16 25 27 26 24 26 25 24 25 23
27 28 28 28 29 29 30 29 30 29 27 15 11 12 12 14 15 18 16 29 17 19 21 25 20 28 25 25 24 16 15 26 22 16 18 13 14 18 10 14 16 17 8 12 10 15 11 23 26 22 19 16 18 19 18 20 24 25 27 22 25 26 20 19 25 19 30 29 27 18 31 32 34 26 22 30 38 34 25 16 25 27 24 24 22 24 27 22
27 28 28 28 28 29 29 30 29 31 20 7 7 10 13 13 10 11 10 17 31 22 22 25 24 23 26 22 23 9 18 23 23 17 25 16 13 18 12 16 13 12 14 13 16 12 19 22 25 21 17 18 20 20 20 21 24 25 26 27 27 23 22 22 29 26 22 37 21 13 26 32 25 28 26 29 38 38 26 24 17 20 28 24 25 25 27 26
27 27 28 28 28 27 29 29 29 16 7 10 12 14 15 13 16 16 14 14 22 24 17 21 17 19 22 23 15 19 18 17 15 18 14 17 21 11 17 16 14 17 20 20 20 21 23 19 13 13 17 20 22 19 20 22 23 25 28 29 27 24 29 25 17 30 25 24 20 11 17 19 28 30 37 26 26 28 33 29 30 14 16 24 24 27 34 33
27 28 28 29 27 28 29 29 14 10 14 11 12 5 5 12 12 10 11 14 15 21 8 9 14 14 15 16 13 19 14 18 14 15 14 12 18 15 17 18 21 18 19 21 24 25 23 24 17 19 20 22 24 23 24 21 23 24 28 31 25 23 27 26 28 26 30 27 34 27 30 37 23 31 33 29 26 27 31 30 35 29 15 15 17 22 29 36
28 28 30 28 27 27 28 15 6 19 18 13 14 14 9 9 10 6 10 11 16 13 7 10 13 8 8 9 15 8 14 20 10 16 15 13 9 18 20 26 21 19 16 16 21 27 21 17 20 19 19 18 24 26 18 21 25 25 32 27 32 30 28 26 28 20 27 35 20 34 31 29 13 29 29 30 30 28 25 30 29 36 23 18 18 22 27 31
29 30 30 29 26 25 16 9 15 17 11 7 11 14 11 7 6 8 12 10 10 10 7 7 7 14 11 11 17 11 15 12 15 10 11 12 15 7 11 17 21 18 14 13 21 31 20 14 10 19 24 24 19 26 25 23 26 35 15 19 28 32 34 35 33 23 23 19 28 26 37 26 18 30 29 28 30 30 26 29 31 30 30 21 19 24 26 31
30 30 30 29 28 18 11 16 15 13 12 11 9 9 10 7 8 8 8 14 16 5 8 6 9 6 8 10 13 8 14 19 21 11 5 13 11 9 18 17 22 17 19 17 21 12 9 10 12 12 9 20 24 18 15 24 36 27 16 22 28 33 35 33 29 26 25 16 29 26 26 35 36 18 22 28 32 32 33 33 33 29 28 25 23 27 30 33
32 29 29 27 28 29 14 11 6 11 10 16 11 10 6 6 9 7 8 10 13 12 13 8 11 6 5 10 7 13 19 15 20 4 8 10 11 13 22 20 18 19 21 24 23 18 17 12 9 9 13 20 19 19 17 22 34 25 26 24 25 28 32 32 27 23 24 24 27 31 29 40 28 11 23 28 34 38 39 34 29 28 29 26 25 26 31 31
30 29 26 25 22 13 8 5 13 15 17 14 11 7 7 9 6 8 10 8 11 13 5 8 7 8 8 15 19 13 20 17 18 17 10 10 11 13 20 9 21 20 21 24 28 24 18 12 15 19 19 20 18 21 23 23 28 18 27 30 28 30 31 29 26 27 21 26 33 28 31 34 26 20 32 34 45 34 25 26 23 23 26 28 25 31 32 33
31 28 23 19 12 9 9 8 15 20 18 15 8 8 8 6 9 8 9 12 10 12 8 5 7 8 16 17 25 9 12 11 15 15 15 13 10 10 15 18 13 13 10 14 23 22 21 21 22 20 17 17 14 25 23 24 25 29 35 29 20 27 23 21 23 18 27 34 31 28 30 30 40 24 26 30 17 24 29 27 27 25 27 28 23 29 33 32
31 28 22 16 17 11 7 9 9 6 7 4 4 8 9 10 6 15 12 5 18 9 6 10 5 15 15 14 21 24 15 7 13 17 15 11 6 9 12 13 14 16 14 11 15 10 20 22 17 12 11 15 21 21 22 25 29 33 30 26 22 27 26 30 24 29 29 46 28 23 25 28 48 26 18 20 25 28 29 32 32 30 30 28 25 30 33 33
31 27 27 17 13 9 13 19 15 13 7 7 6 5 10 10 15 6 12 11 15 6 13 7 15 15 19 20 22 20 7 11 12 17 14 13 12 15 20 22 12 18 15 6 14 12 16 16 20 22 16 21 21 21 23 27 29 30 33 29 25 31 26 25 24 24 32 33 26 25 17 40 22 14 23 28 28 29 28 29 31 32 32 29 29 31 32 32
33 29 18 10 11 16 12 9 13 8 5 7 9 7 4 13 13 10 11 7 13 6 7 13 15 22 17 16 14 6 7 10 11 12 15 11 15 11 13 20 20 15 16 6 12 12 13 18 24 22 23 19 27 27 27 23 18 28 26 30 23 25 37 31 31 43 38 16 25 24 30 41 25 21 26 28 26 26 30 32 29 31 34 30 32 32 33 30
34 24 12 9 12 15 14 13 6 10 9 8 8 9 12 13 10 10 12 9 14 10 11 8 20 13 17 10 11 9 13 11 11 11 9 11 13 16 17 18 18 22 11 14 12 12 17 25 16 23 17 18 28 27 31 29 29 29 25 26 29 32 16 22 20 19 14 16 22 25 34 13 25 17 29 30 31 31 27 31 30 30 29 27 31 33 32 30
21 12 10 9 6 7 14 12 9 8 9 7 12 11 10 9 14 8 14 9 12 15 17 18 17 14 14 9 5 7 10 11 6 8 10 17 14 16 19 19 24 26 20 25 11 12 12 25 8 13 21 23 24 25 30 30 34 27 25 36 34 23 24 22 20 12 9 14 30 17 22 25 25 10 31 31 31 34 29 27 29 30 32 30 34 34 33 32
14 16 11 6 14 10 12 10 11 10 8 9 9 10 8 16 9 7 9 10 11 6 10 21 18 11 12 9 8 13 9 14 8 6 7 12 14 17 20 18 18 26 28 20 13 13 13 21 14 17 23 29 23 22 25 28 36 19 30 27 25 27 28 26 16 16 17 21 29 20 14 13 24 32 16 32 35 33 30 28 27 29 31 31 33 35 34 32
14 12 16 18 16 15 14 13 12 7 8 5 8 12 9 12 7 10 8 9 8 5 11 9 13 5 13 9 10 8 7 8 6 7 8 13 14 13 18 21 20 24 26 23 20 11 12 24 25 20 25 25 20 19 22 25 31 29 30 16 16 27 30 27 23 23 21 25 17 17 14 19 26 23 16 21 29 28 25 25 25 28 32 32 32 32 31 32
7 8 16 9 13 20 15 13 11 9 7 8 9 15 11 18 16 15 10 8 7 5 9 9 10 8 5 5 10 14 14 9 7 13 7 13 12 10 17 18 17 24 25 26 26 11 9 16 20 15 20 17 18 22 27 28 29 31 23 30 23 25 21 20 29 27 19 14 16 15 17 31 24 27 21 25 30 24 19 21 26 29 30 31 32 33 32 33
7 10 9 6 20 17 16 11 10 5 6 7 6 14 11 21 20 17 9 9 12 8 10 7 11 11 10 10 10 12 11 13 13 13 12 12 17 12 11 20 14 23 18 26 14 14 9 10 18 16 19 16 24 29 26 22 26 29 26 30 24 20 21 22 20 31 20 14 19 17 22 20 16 15 23 27 28 26 23 25 26 30 30 32 34 34 33 33
10 7 11 12 17 18 14 8 5 8 8 12 12 19 14 17 15 14 11 15 12 14 14 12 7 8 7 11 12 9 12 13 17 13 12 8 16 12 18 20 18 21 21 22 15 15 14 20 21 14 10 14 18 19 17 20 18 19 24 24 18 18 14 9 19 20 29 26 19 17 23 18 16 13 20 25 26 28 28 28 28 27 28 32 33 32 35 33
8 11 7 11 18 16 12 6 13 9 10 11 13 13 20 15 17 18 11 7 9 14 12 15 11 12 9 11 13 14 11 15 11 14 9 8 8 15 9 16 17 23 28 24 22 20 19 10 15 17 13 16 16 10 16 14 19 18 18 22 18 19 16 16 15 14 11 22 11 13 9 18 19 14 21 20 23 22 26 29 28 26 29 29 32 34 36 35
12 12 8 6 15 14 8 9 12 10 10 15 10 13 13 20 15 15 13 8 10 9 13 15 13 8 9 12 10 10 9 14 12 8 11 8 13 12 7 15 15 23 23 14 12 14 14 14 14 19 14 11 17 14 10 15 18 22 24 22 18 21 20 14 19 14 22 23 18 11 17 19 14 8 18 18 19 22 26 30 29 28 26 29 31 32 33 31
12 13 13 6 11 6 5 12 13 13 16 17 14 20 15 18 19 16 13 14 14 12 15 14 9 13 13 8 9 10 8 10 7 8 11 9 14 9 14 11 15 21 24 19 18 19 15 12 9 11 11 12 11 17 17 12 16 20 18 18 18 24 26 26 29 24 26 20 17 14 17 18 13 6 14 15 23 22 22 23 31 29 24 30 34 33 32 33
18 12 12 9 6 6 7 9 9 15 18 21 21 24 24 17 10 16 13 12 6 7 14 15 15 11 14 10 13 13 14 13 16 14 10 8 13 18 16 11 10 17 16 23 22 21 11 9 8 8 9 12 18 20 20 18 21 15 14 21 24 25 29 25 18 16 20 14 9 12 18 20 17 9 14 18 21 21 21 23 25 30 29 31 32 32 34 36
12 14 13 9 7 9 16 17 19 20 21 14 19 19 11 23 23 13 9 13 10 12 17 12 10 13 15 11 10 8 9 9 14 12 13 13 14 17 13 22 15 13 22 28 25 22 10 5 6 9 9 9 11 12 10 11 14 19 14 15 22 26 25 18 15 17 19 14 15 16 17 13 12 9 15 13 20 19 17 20 25 23 27 34 33 33 35 35
11 10 14 15 18 8 11 12 9 10 15 14 22 15 17 18 23 18 7 19 6 10 15 9 10 14 9 13 10 12 9 12 10 13 15 11 10 14 20 21 20 19 26 27 22 12 4 6 9 10 13 18 19 19 14 10 15 14 13 15 17 23 22 13 14 22 10 15 21 15 11 15 11 13 12 10 12 17 22 25 24 26 29 32 32 33 29 33
12 7 8 5 8 15 18 15 16 23 25 19 20 17 12 20 20 27 20 7 6 7 18 9 8 13 16 15 12 14 5 8 7 7 7 8 13 10 17 12 12 23 24 21 14 9 8 6 8 10 15 17 12 14 15 14 16 19 17 15 15 17 20 20 18 18 10 14 21 15 13 14 5 9 9 7 8 16 24 26 28 28 30 29 31 33 32 33
9 12 6 13 14 9 11 20 25 19 23 19 13 8 19 18 22 19 18 22 19 10 7 15 19 19 15 11 7 8 8 11 8 7 7 7 6 10 10 12 16 16 16 12 11 5 8 5 8 14 16 15 13 12 13 14 15 19 22 18 18 25 29 21 14 15 15 16 13 12 9 14 10 9 11 13 7 8 13 22 22 26 28 29 33 33 34 34
15 15 12 16 10 19 17 13 16 16 17 21 14 12 24 19 20 26 25 18 23 16 13 11 21 21 17 13 9 7 8 9 8 8 7 4 17 5 7 6 11 16 10 6 7 7 8 12 10 14 14 15 12 11 10 12 11 18 21 21 25 27 30 27 26 24 17 17 14 15 8 12 10 8 11 9 8 17 16 30 28 27 28 30 33 33 34 35
10 10 13 18 26 13 13 11 13 18 17 14 18 17 18 18 19 23 23 14 7 23 18 17 19 21 14 11 10 16 16 13 13 16 14 15 13 6 6 12 7 9 13 9 6 8 5 7 7 10 12 14 12 12 13 8 9 15 20 23 29 26 24 18 21 14 11 17 12 11 12 12 17 16 13 14 17 24 23 30 31 30 29 32 32 32 33 33
9 6 9 11 12 13 18 15 16 15 8 17 20 20 25 20 21 22 28 9 7 6 13 12 16 13 15 11 10 12 17 15 17 18 18 19 19 18 14 18 16 10 11 10 3 5 7 5 11 10 10 10 15 17 11 8 13 17 22 20 21 17 19 20 15 10 10 15 10 8 12 11 11 16 15 15 18 16 17 23 31 30 32 32 34 34 33 33
Wind_Speed
16 16 16 16 16 16 16 16 16 16 16 16 16 17 16 16 17 17 17 18 19 19 20 21 21 22 21 22 23 23 22 10 15 10 6 7 2 3 5 6 7 6 6 2 7 8 6 6 4 3 1 1 2 1 2 1 2 1 4 6 10 8 12 7 10 7 1 5 4 8 9 8 11 9 1 6 5 8 2 11 2 11 6 6 7 16 18 17
16 15 16 16 16 17 17 17 17 17 17 16 16 17 17 17 17 17 17 18 19 19 20 20 21 22 22 22 23 23 18 10 11 10 13 4 6 6 6 6 5 4 5 3 6 5 5 5 5 7 2 1 2 2 3 2 4 5 3 6 14 9 7 7 7 8 5 7 7 10 11 8 11 11 5 6 7 3 11 3 14 11 11 10 14 15 17 18
15 16 16 16 17 17 17 17 18 17 17 17 17 18 17 17 17 17 18 18 18 19 19 20 21 22 22 23 22 22 13 10 4 2 3 5 5 5 7 7 2 5 2 1 1 3 2 4 7 5 2 2 2 4 3 4 4 6 6 11 12 5 5 9 7 8 9 5 7 11 14 11 11 11 0 4 3 6 3 8 4 15 12 16 12 13 16 18
17 17 16 16 17 17 17 17 17 17 17 18 18 17 18 18 17 18 18 18 17 18 19 20 21 22 23 23 23 15 7 4 0 1 1 5 3 6 7 7 2 3 2 1 2 5 4 5 6 3 2 2 2 3 4 6 5 2 5 9 9 6 5 7 6 8 6 6 7 11 12 16 13 8 6 1 6 4 5 7 14 12 18 18 20 17 16 14
17 18 18 18 18 18 18 18 18 18 18 17 18 19 19 18 18 19 18 18 17 18 19 20 21 22 22 23 23 8 6 2 1 0 1 7 7 7 8 7 5 1 2 3 5 2 3 4 2 1 1 1 1 1 4 4 3 2 9 12 5 5 10 5 9 9 8 8 7 8 11 17 10 6 6 5 5 7 5 8 12 21 22 24 22 19 13 13
16 17 17 18 18 19 18 18 19 18 19 19 19 19 19 19 18 18 18 19 19 18 18 18 19 21 21 23 15 6 0 1 1 2 5 9 9 6 8 7 7 2 2 4 2 7 5 5 0 1 0 1 2 4 3 4 2 8 6 7 9 5 3 5 7 7 8 6 8 9 12 11 14 7 7 8 12 4 4 8 12 22 23 20 18 15 14 13
17 17 17 17 18 19 19 18 18 19 19 19 19 19 19 19 19 19 19 19 18 18 18 18 17 20 20 17 12 2 2 7 3 4 9 10 8 7 9 7 6 3 2 4 5 3 4 6 2 2 1 1 5 3 7 4 4 7 10 4 9 8 10 5 4 7 9 14 14 10 8 9 16 15 9 4 9 7 3 6 11 10 15 16 17 18 20 18
18 17 18 18 18 18 19 19 19 19 19 19 19 19 19 18 19 19 18 19 17 18 18 17 17 18 17 8 7 4 2 7 10 3 11 8 7 7 7 3 4 2 3 3 4 6 4 5 3 3 2 3 2 2 1 4 7 9 11 8 6 4 7 9 10 8 6 7 10 11 15 16 17 16 8 5 6 6 4 5 12 5 13 18 22 21 19 17
18 18 18 18 18 18 19 19 19 19 19 19 19 18 19 19 19 19 20 18 18 17 17 16 17 16 13 3 2 3 6 6 2 4 3 1 4 4 2 2 1 0 3 4 3 4 2 2 5 5 3 7 2 4 6 2 8 3 5 5 6 6 4 7 10 14 15 9 5 5 12 17 19 17 14 14 11 9 6 15 13 16 14 14 17 19 18 21
18 18 18 18 18 19 19 20 20 20 19 19 19 19 19 19 19 19 18 18 17 17 16 15 15 14 7 4 2 2 7 5 5 5 5 4 7 6 5 6 3 3 4 5 6 4 3 3 4 6 4 5 3 5 4 2 4 9 8 5 5 6 7 6 12 13 15 12 9 10 13 13 12 8 9 14 15 5 13 15 17 14 17 16 15 17 20 22
18 18 18 18 19 19 20 20 20 21 20 20 19 19 19 19 19 18 18 18 17 17 15 15 13 10 4 4 1 5 5 4 3 2 6 6 8 7 5 5 2 3 3 5 5 3 3 4 6 6 1 1 8 4 3 1 6 5 7 8 5 7 10 9 8 13 11 12 15 13 13 11 9 5 15 17 11 4 11 16 17 18 13 13 16 17 12 15
18 19 19 19 19 19 20 20 20 22 21 21 20 21 20 20 19 19 18 18 17 16 15 13 12 3 3 3 6 10 4 4 8 8 8 7 7 7 9 6 3 3 3 4 6 6 3 4 5 4 2 7 3 7 4 7 7 5 6 5 6 8 9 6 10 9 9 12 13 8 9 13 11 15 19 21 12 5 7 12 16 20 17 16 13 9 9 11
20 20 19 20 20 20 21 21 21 22 22 22 21 20 20 21 19 20 19 18 16 16 16 13 8 1 0 5 11 12 14 14 14 16 14 5 6 8 8 7 5 4 2 2 4 5 6 4 3 5 2 2 5 2 7 10 4 6 1 2 4 8 10 12 5 8 8 7 10 8 12 14 19 21 19 18 15 5 3 11 11 10 14 14 14 13 10 7
20 20 21 20 20 21 21 21 22 22 22 22 22 21 22 21 21 21 20 21 19 18 13 10 1 1 3 8 8 8 9 7 9 13 13 8 5 6 5 5 5 4 3 4 5 5 5 4 3 4 3 2 2 5 9 5 2 0 4 1 3 5 10 4 4 6 12 6 7 10 14 16 17 19 20 18 12 7 8 4 14 14 11 13 14 13 13 14
20 20 20 21 21 21 22 22 22 23 23 24 23 24 24 24 23 22 21 19 18 14 12 8 2 1 4 8 8 18 22 10 10 15 12 4 4 5 5 5 5 5 4 5 3 3 4 4 3 1 2 1 3 3 4 3 2 2 0 9 3 8 3 4 5 7 12 5 9 9 14 17 16 18 18 11 5 10 12 8 9 12 12 10 11 13 13 13
20 20 21 20 21 21 22 23 23 23 25 24 25 25 27 24 23 23 21 16 16 13 7 2 4 4 5 10 5 9 5 4 7 13 11 6 5 7 3 4 2 4 3 4 5 3 3 2 2 2 2 3 1 1 4 5 5 2 5 4 9 6 5 5 11 6 9 4 7 16 15 11 14 15 15 6 8 8 11 14 5 12 14 12 11 11 12 10
20 20 20 20 21 21 22 22 23 25 24 26 27 26 25 24 22 19 15 14 5 3 4 2 3 6 3 4 6 8 2 6 2 1 3 7 9 7 4 4 3 4 3 3 3 3 2 1 1 1 1 2 1 0 1 4 6 5 2 5 1 3 3 9 4 6 5 10 11 18 16 9 1 6 7 8 11 11 12 15 8 12 10 14 14 12 10 12
21 21 21 21 22 22 22 23 24 24 24 24 26 22 23 25 17 3 2 1 2 3 4 2 2 2 9 2 1 4 3 2 4 5 7 3 9 7 5 3 1 1 3 2 1 2 1 1 1 3 1 2 1 2 6 11 10 7 2 1 2 4 7 7 7 4 7 10 16 14 17 14 5 4 7 12 13 17 17 15 15 10 12 12 13 13 14 14
20 20 21 21 22 23 23 23 24 24 22 23 23 23 20 7 1 4 4 3 4 1 1 3 3 3 3 5 6 5 4 5 1 5 4 5 3 5 4 3 0 1 0 3 4 5 0 1 1 1 6 5 8 10 11 9 1 2 1 2 4 6 10 10 6 9 5 9 13 17 16 14 13 8 8 5 8 15 18 14 13 7 12 14 14 14 14 14
20 20 21 21 21 22 23 23 24 24 23 15 12 9 4 7 5 1 2 0 3 8 10 6 11 6 11 12 8 5 9 7 5 5 2 5 4 5 6 3 1 1 2 2 2 3 3 5 5 8 10 10 8 8 9 5 5 7 7 5 8 8 8 6 9 7 12 8 12 14 15 10 11 15 13 12 6 4 10 13 11 7 11 12 13 14 15 15
20 20 20 21 22 22 22 22 22 23 23 10 7 3 4 2 4 4 7 10 13 14 14 14 13 14 14 4 5 6 7 6 3 4 3 2 2 7 3 3 2 2 2 4 4 2 3 6 10 14 13 10 6 3 3 4 5 8 7 7 8 8 8 6 8 8 12 9 9 10 12 15 14 14 15 13 12 11 9 11 12 10 13 13 15 16 16 15
21 20 21 21 21 21 22 21 23 23 21 2 1 2 1 2 3 4 2 9 9 12 15 17 12 14 11 14 13 8 8 10 15 8 6 7 4 7 2 6 5 7 2 2 1 2 3 10 15 15 8 2 3 4 4 3 6 9 8 7 8 9 7 11 13 12 9 13 13 4 12 15 15 12 12 16 18 16 11 9 12 14 10 12 13 16 15 11
21 21 21 21 21 22 21 22 23 24 4 2 2 1 2 1 1 2 1 4 13 2 9 11 10 13 13 10 9 4 7 8 11 6 3 4 4 8 5 6 6 5 4 5 6 3 5 11 16 3 2 4 5 6 5 7 8 6 6 7 10 7 5 6 10 12 12 9 7 8 7 7 10 12 13 15 18 18 14 10 10 10 15 14 16 14 14 15
22 21 21 21 22 22 22 22 20 8 2 4 4 4 6 2 3 3 5 2 6 12 4 4 8 6 9 8 3 11 11 4 4 9 5 4 6 6 5 9 7 6 7 7 8 8 11 8 5 2 4 6 9 7 7 7 7 8 8 8 8 9 10 8 7 9 12 11 10 6 8 6 9 14 14 13 14 15 18 13 8 9 10 11 16 16 18 20
21 21 22 23 22 22 21 20 5 4 8 7 2 1 1 0 0 4 3 3 2 8 4 2 3 4 5 3 4 2 4 3 7 3 1 5 5 6 8 4 3 6 5 8 8 9 13 13 5 4 4 8 10 9 9 7 7 7 8 9 9 9 12 9 12 12 4 7 7 9 6 13 10 16 19 14 8 12 15 19 16 13 10 5 9 15 15 17
21 22 23 23 21 20 20 6 2 5 9 3 1 1 0 3 4 2 3 2 5 4 1 0 1 2 2 2 2 2 1 2 5 7 7 5 3 5 2 6 5 8 7 6 8 5 8 7 7 9 10 8 8 10 9 8 8 6 5 6 10 11 12 12 17 8 7 8 5 4 12 7 2 10 12 12 17 17 13 16 18 16 12 8 10 14 14 15
22 23 23 22 18 16 6 2 3 7 3 1 3 4 3 3 3 4 2 1 2 1 1 1 2 1 3 0 1 2 3 3 7 6 5 0 5 1 5 5 2 3 2 1 2 8 5 4 6 12 11 11 8 8 7 10 8 9 4 5 6 11 12 15 18 11 9 7 15 15 9 9 4 11 11 13 14 16 16 19 21 18 14 10 9 12 16 18
22 22 23 20 17 10 4 4 7 4 6 4 4 6 3 1 3 3 1 2 1 0 0 1 2 1 2 1 5 2 5 8 6 4 2 1 3 2 4 6 7 4 3 3 10 1 2 3 6 5 5 7 9 7 5 9 9 6 6 9 11 10 10 13 13 10 8 6 11 13 10 8 12 6 7 15 16 19 21 21 21 20 18 13 10 13 17 19
24 24 22 18 17 18 5 5 2 4 4 4 5 6 2 3 4 2 2 1 0 0 3 2 3 1 1 2 2 3 3 3 8 1 5 5 2 3 2 5 5 4 4 6 4 3 3 4 5 5 4 6 4 5 5 6 7 7 9 6 6 8 10 11 10 9 7 5 13 16 9 6 8 3 6 12 20 21 21 22 19 19 17 16 11 13 17 17
23 23 20 17 10 5 3 1 5 8 6 7 6 4 3 4 2 2 4 2 1 2 1 1 1 2 2 3 4 4 6 2 1 6 5 2 6 2 0 1 5 3 3 1 10 10 8 8 5 3 3 5 5 5 4 4 6 4 5 9 10 11 10 9 7 5 4 9 16 19 14 8 6 6 14 13 17 17 14 12 12 12 15 16 12 14 16 17
26 22 17 13 1 2 1 2 8 10 8 7 5 3 3 2 1 2 1 2 1 3 2 1 2 4 5 8 11 2 7 2 4 3 3 6 4 1 1 3 3 1 4 5 10 12 11 9 8 3 6 3 3 3 2 2 1 3 4 5 4 9 8 7 6 5 6 11 17 19 15 10 9 9 11 13 7 12 16 17 16 14 15 17 12 14 17 18
25 21 17 7 6 2 3 4 4 2 4 3 0 3 3 3 1 4 2 1 2 2 0 3 1 3 6 5 8 7 3 2 5 4 4 4 4 4 2 5 4 1 5 6 6 1 8 11 6 7 1 9 4 5 4 3 2 4 5 6 6 3 3 4 5 7 10 16 10 14 13 8 20 11 5 8 12 15 17 16 18 17 18 17 14 18 18 18
24 20 20 6 6 3 5 9 6 7 3 4 2 2 3 3 2 2 3 3 3 1 2 3 6 6 9 10 8 7 0 3 4 5 4 0 4 4 3 6 5 6 3 3 5 1 5 3 6 9 6 4 2 5 3 3 7 6 7 7 8 8 5 6 6 4 11 10 11 10 3 13 9 4 13 13 14 18 18 18 17 20 21 18 14 16 17 19
22 19 7 3 5 8 5 3 5 5 0 2 4 3 1 3 2 4 4 2 6 1 2 3 5 10 8 4 5 2 2 5 4 3 5 3 1 3 4 7 7 4 3 1 3 5 5 6 9 7 4 8 8 9 7 4 4 10 8 8 8 7 5 8 8 15 13 4 11 14 6 4 4 7 9 13 13 14 17 18 19 21 19 16 16 17 19 19
23 11 4 3 3 7 9 7 4 1 3 3 3 3 4 2 3 3 4 2 2 4 5 2 7 6 7 2 4 2 4 3 5 3 2 5 5 4 4 6 9 7 2 2 3 1 10 8 7 8 7 8 11 10 8 6 5 6 5 7 10 13 5 3 4 3 1 4 8 7 8 4 9 5 8 14 15 15 18 20 20 20 15 13 13 16 17 17
11 5 2 2 2 3 8 6 3 3 3 2 3 3 1 2 3 0 3 2 2 4 7 10 9 3 3 3 2 3 4 1 3 4 1 6 6 5 6 3 7 11 6 8 2 3 2 8 4 6 8 9 12 10 12 11 9 9 6 10 13 10 10 6 8 4 5 4 10 3 4 10 12 5 12 14 20 22 19 18 19 18 13 14 15 16 17 18
6 6 3 1 2 3 6 5 4 4 4 4 4 2 3 2 5 3 3 4 5 1 4 6 1 2 1 2 1 2 1 1 4 2 2 5 3 8 7 8 7 10 12 8 4 4 5 4 3 3 7 7 8 12 14 16 12 2 10 12 10 8 8 5 3 2 5 6 7 4 6 3 7 9 7 20 22 22 20 18 18 15 14 16 16 17 18 20
6 3 4 4 5 5 6 7 6 3 3 2 0 5 1 2 3 6 2 2 2 1 2 2 2 2 1 1 2 1 2 1 2 2 3 7 4 5 10 5 12 12 15 13 7 3 5 9 11 12 15 14 9 9 13 15 19 12 8 2 3 7 11 5 3 9 4 7 2 4 6 8 10 10 4 11 18 20 17 16 14 14 15 18 18 20 20 21
2 1 4 3 2 9 7 7 6 4 1 1 2 4 3 7 4 5 5 3 2 1 2 3 2 2 2 2 3 4 2 3 2 2 1 3 2 5 9 8 10 17 16 14 10 2 3 5 4 3 2 4 6 9 10 13 17 20 13 10 5 1 4 3 8 10 6 3 4 7 6 8 8 9 9 15 14 13 13 11 14 16 17 17 18 17 18 17
3 2 2 0 7 9 8 6 3 2 2 1 2 4 3 4 7 10 5 6 3 4 3 2 5 4 2 6 3 4 3 4 4 5 5 3 6 3 6 11 6 12 12 17 5 6 1 2 7 1 3 3 7 9 12 10 12 13 11 10 6 4 4 6 4 9 6 3 5 5 6 5 7 7 12 15 15 16 13 12 12 14 17 19 20 19 18 19
2 1 2 2 7 8 7 3 1 2 2 3 3 5 5 5 3 4 6 10 4 5 5 3 2 3 3 3 4 2 2 3 2 3 4 3 6 2 10 10 9 8 9 7 4 1 2 6 9 5 1 3 3 6 10 12 8 8 9 10 9 9 7 3 7 3 6 6 4 4 8 7 8 5 11 15 16 17 13 16 13 13 18 19 19 20 21 19
2 2 0 3 5 8 5 2 3 1 1 4 4 3 4 6 4 11 3 4 6 2 3 4 6 6 3 5 3 4 3 5 3 2 3 4 4 7 2 12 9 15 11 7 10 9 6 1 5 7 5 5 3 4 8 7 10 8 9 9 6 6 6 5 3 5 3 7 4 3 1 8 8 8 10 13 15 13 12 14 15 14 18 19 19 20 20 22
3 2 2 4 6 4 2 3 2 1 3 5 4 5 4 5 6 5 2 1 1 1 1 4 4 2 4 5 3 3 4 4 3 3 3 4 4 7 3 3 11 15 12 1 3 5 6 2 6 8 7 6 10 8 4 5 6 2 7 5 6 7 6 5 5 3 7 11 8 3 5 5 5 4 8 11 9 10 12 15 16 14 15 17 18 18 17 15
2 2 5 2 4 1 2 2 5 7 6 9 8 10 8 5 4 7 2 3 1 2 2 2 2 6 6 4 4 3 2 3 3 3 5 3 4 3 9 5 5 8 10 9 7 9 4 4 4 1 2 2 1 6 6 2 3 2 2 5 9 8 7 7 7 4 5 7 9 4 5 7 5 3 3 2 5 10 12 13 18 16 15 17 19 18 17 18
4 2 4 4 3 3 3 3 1 6 9 11 9 14 10 3 3 9 4 3 1 3 0 3 5 2 4 5 6 6 8 7 4 4 3 4 5 6 9 1 7 2 10 13 13 9 4 4 3 1 4 3 4 5 5 6 9 3 4 10 10 9 7 5 4 2 4 4 3 4 6 10 10 5 2 5 8 10 12 14 13 18 18 18 17 17 18 19
3 2 5 4 2 1 4 0 2 4 8 7 10 7 5 8 6 5 5 4 3 4 5 3 2 4 5 3 4 3 5 5 7 4 4 5 5 4 5 10 7 6 7 22 14 12 3 2 3 3 3 4 4 2 5 1 7 8 7 8 8 4 8 8 5 5 5 6 8 8 8 8 8 6 6 5 8 11 9 7 12 13 18 21 20 19 19 18
1 2 2 5 6 1 4 6 2 4 5 4 4 3 8 10 9 6 5 2 1 1 2 4 2 1 3 4 4 4 4 3 4 6 7 7 5 6 12 14 8 6 16 14 16 4 1 2 5 4 3 3 5 5 8 5 4 4 4 3 3 7 8 7 6 7 4 5 10 6 4 3 5 6 3 4 5 10 13 14 12 15 17 19 19 20 21 19
3 1 3 0 1 5 7 1 4 11 13 4 4 2 6 10 11 11 7 3 1 1 5 2 4 7 8 6 5 4 2 4 2 2 4 5 6 5 7 2 3 9 10 6 6 2 3 2 3 0 4 5 7 7 7 6 7 5 5 3 3 6 5 6 7 7 4 3 10 9 8 3 3 4 5 4 5 8 15 15 18 18 17 17 18 20 19 19
2 1 0 3 2 3 1 10 13 10 12 8 3 3 10 10 13 7 4 9 3 3 2 5 12 13 9 1 3 3 4 3 3 2 2 3 4 4 3 5 6 10 1 2 1 1 1 1 2 1 4 6 4 3 4 5 4 4 3 2 5 4 6 6 7 8 7 9 10 8 7 7 6 6 7 8 4 5 7 10 13 16 18 19 20 20 20 19
5 4 5 2 3 6 7 5 5 6 7 6 5 4 7 8 13 15 12 6 6 6 2 3 14 14 12 3 4 3 4 6 5 4 4 3 9 1 3 2 3 0 3 1 1 2 2 2 2 2 3 4 2 3 4 6 4 2 1 4 5 3 6 4 4 8 8 6 9 10 5 6 5 4 7 5 1 6 8 13 16 17 18 19 21 21 21 20
1 0 1 5 7 3 3 4 6 7 3 5 7 7 9 10 11 12 13 9 3 6 7 11 12 13 7 4 2 8 8 7 9 11 9 9 7 3 2 5 3 5 3 1 1 2 2 2 2 2 3 5 1 5 4 3 6 3 2 3 3 3 4 2 3 4 2 7 8 5 6 6 9 11 9 2 9 13 14 14 14 14 18 20 20 21 21 21
2 3 2 0 2 4 5 5 6 3 2 2 4 7 5 13 13 13 10 4 3 4 5 6 10 8 8 7 6 7 11 10 11 12 11 11 11 11 8 10 8 5 4 1 1 0 0 0 3 3 3 2 3 4 3 6 6 5 7 5 4 5 4 4 8 4 5 4 4 3 6 6 7 9 4 5 3 9 11 14 15 13 18 20 22 21 21 21
Wind_Direction
357 356 354 353 351 349 349 347 344 342 342 342 338 339 339 338 338 337 337 338 336 335 334 333 334 333 333 332 331 332 331 332 318 325 329 244 206 195 223 240 264 277 315 4 354 14 356 350 353 318 310 62 259 203 238 238 180 141 206 188 223 211 212 178 199 186 171 232 241 257 253 264 275 293 299 338 275 245 246 148 33 41 22 152 105 134 138 139
353 353 353 351 350 349 347 346 343 341 341 340 337 336 334 334 334 335 334 335 334 333 334 333 333 333 332 332 331 331 332 317 302 293 241 223 178 189 237 250 267 325 342 41 12 353 355 347 335 337 326 282 228 211 168 249 174 182 194 203 222 202 215 161 196 206 204 232 255 262 267 259 265 273 300 289 311 352 92 24 113 83 80 86 124 136 145 142
347 346 345 348 346 346 345 344 343 341 339 338 339 336 334 331 330 330 331 331 331 334 333 335 334 333 333 331 330 331 331 319 297 281 323 166 192 210 246 249 285 338 64 302 298 303 283 286 299 321 276 228 265 220 186 252 171 225 188 214 227 199 208 198 180 204 207 215 250 267 270 264 262 269 176 255 316 24 46 118 68 117 127 133 142 150 152 153
344 342 341 340 340 339 338 337 337 338 338 337 336 333 332 330 329 330 331 331 333 332 333 334 334 333 333 330 329 328 326 298 345 300 251 218 233 246 249 263 315 352 358 241 279 299 280 271 276 243 265 207 285 231 208 231 188 213 205 216 218 201 198 215 194 207 216 198 242 256 275 279 262 262 289 318 307 276 189 176 157 156 148 155 155 164 161 162
344 341 340 340 338 336 336 335 335 332 331 331 333 331 330 329 330 330 330 329 329 330 331 330 332 332 332 330 325 335 323 36 248 283 210 191 221 231 256 271 294 44 341 286 309 268 290 290 282 284 176 269 282 238 241 251 240 318 224 226 212 189 222 195 208 212 208 222 231 248 257 264 275 288 280 288 246 258 183 223 181 162 159 164 168 161 149 150
345 342 338 337 335 334 334 333 331 330 328 326 326 326 325 323 326 325 325 324 326 327 328 331 331 333 334 330 320 321 1 307 342 279 210 203 212 228 250 264 282 313 14 350 341 304 328 334 354 110 328 139 235 213 289 232 226 244 269 239 222 215 203 196 218 217 209 223 227 240 245 264 275 283 268 277 273 228 246 165 211 165 168 162 146 141 149 155
346 345 342 341 338 335 333 332 330 326 326 324 325 325 324 322 322 322 322 322 320 324 325 329 333 333 335 330 306 124 59 271 318 242 188 207 213 227 247 265 301 342 21 347 328 345 338 331 324 216 168 266 274 245 267 282 247 242 246 254 242 215 227 240 228 209 215 220 232 237 257 253 270 266 266 223 269 290 4 153 173 190 147 138 145 153 157 164
341 339 338 336 333 332 330 328 327 327 326 324 324 325 325 322 319 319 321 322 321 321 324 327 331 335 340 339 354 352 347 253 250 217 197 201 216 236 263 295 272 339 359 274 286 317 347 329 353 304 224 185 237 251 238 277 258 245 249 249 265 246 233 240 251 255 252 242 237 238 246 248 249 254 272 246 236 275 57 105 125 152 152 159 156 163 158 155
342 340 339 338 335 331 330 329 327 326 325 322 320 322 322 321 319 319 319 318 320 317 320 324 330 331 342 294 318 350 278 227 260 177 213 316 275 271 266 307 157 195 274 300 316 294 352 288 356 47 302 332 316 280 270 235 288 246 263 271 258 255 248 223 235 247 247 249 227 251 246 247 249 264 265 263 247 239 128 120 142 150 161 168 165 159 161 165
339 338 337 335 334 332 330 328 325 323 322 321 319 319 318 316 317 316 316 316 315 318 317 324 325 339 346 356 343 38 256 320 64 61 27 350 310 295 284 240 303 341 346 331 334 356 9 325 335 320 282 272 246 248 293 250 264 334 323 314 317 296 267 224 221 229 241 241 233 228 244 253 264 269 264 255 248 216 137 144 150 165 169 173 177 173 175 171
335 334 333 332 331 329 328 326 324 322 321 320 321 320 317 314 310 311 313 313 312 314 316 318 327 334 13 360 63 223 267 7 99 27 337 335 319 304 265 279 326 308 5 322 314 329 324 345 1 326 293 320 331 296 317 246 345 332 324 325 309 275 269 271 246 226 221 243 236 228 244 259 261 262 252 256 254 188 145 153 159 167 177 184 181 179 188 181
336 334 333 331 331 328 328 326 324 322 320 318 317 315 312 310 309 308 306 305 306 306 312 311 314 311 288 279 234 225 285 303 317 318 321 327 307 292 296 280 288 299 308 305 305 312 331 333 350 22 275 351 309 331 285 3 331 335 334 333 303 298 288 250 249 237 213 231 231 228 256 252 245 238 245 257 254 256 147 169 168 168 179 182 186 183 177 190
335 332 331 331 329 330 328 326 324 321 318 316 316 313 309 308 309 305 302 298 297 302 302 307 300 259 106 286 238 257 288 295 307 306 300 289 283 274 260 262 254 253 225 260 286 299 317 323 346 331 284 333 292 229 307 322 322 323 6 216 298 298 276 258 251 259 227 224 212 205 243 236 235 238 241 249 257 269 206 171 186 193 178 179 174 178 187 208
334 332 330 330 331 330 329 326 324 322 319 316 314 312 310 308 305 300 295 292 292 291 293 290 352 207 218 249 277 265 268 266 284 289 277 286 294 293 315 296 276 263 242 255 261 274 290 290 303 267 263 240 289 333 319 326 310 217 261 314 210 238 243 243 209 229 243 194 195 181 235 238 235 238 237 240 257 258 256 173 176 181 189 181 177 177 183 193
333 331 331 329 329 327 326 324 323 321 320 316 315 313 310 304 298 291 287 287 283 276 275 279 275 172 246 268 266 268 262 252 266 259 261 272 266 297 270 286 276 239 224 210 236 230 247 289 337 335 300 280 337 354 331 331 345 283 325 234 219 218 271 300 251 215 227 217 191 181 236 234 229 237 237 226 226 250 250 235 148 176 183 181 179 181 184 190
332 330 329 329 327 328 326 325 322 321 320 318 316 313 307 298 291 286 284 274 270 272 276 306 202 184 291 285 260 303 304 123 246 237 250 201 230 228 234 263 272 289 246 266 229 239 238 288 251 212 304 2 11 2 341 4 323 278 210 258 227 212 237 287 255 230 224 230 219 200 232 229 236 231 239 212 208 235 248 254 161 175 177 177 185 184 187 172
330 329 329 329 328 326 325 323 323 322 321 320 317 310 302 294 290 284 273 266 256 241 153 184 168 175 254 230 289 299 234 221 222 106 235 199 203 218 236 266 282 271 294 299 217 196 234 173 217 301 249 199 177 40 36 296 278 281 223 229 295 242 184 236 309 261 206 208 230 222 228 222 279 193 208 226 220 231 241 249 230 162 184 183 178 179 181 180
335 333 331 330 329 326 324 326 326 324 323 321 318 310 303 301 305 290 321 168 149 181 184 296 75 206 263 292 310 225 262 256 166 215 225 198 189 208 205 217 202 36 24 348 335 162 131 240 106 195 306 185 167 154 165 220 211 219 212 12 304 270 252 246 210 233 215 218 232 236 234 230 244 279 210 195 215 235 232 237 248 158 174 180 172 174 182 183
333 331 330 328 327 326 326 327 325 325 325 321 314 301 288 297 27 94 92 131 104 32 36 190 175 157 127 217 243 309 293 251 303 171 228 193 208 205 217 227 31 70 9 69 301 173 76 322 76 163 234 218 204 197 202 214 119 212 233 210 229 223 237 237 241 259 222 226 233 232 235 224 227 247 259 260 221 219 239 231 240 164 178 175 174 179 182 185
334 332 330 330 328 328 328 326 325 324 327 324 332 332 3 27 359 10 12 228 228 217 245 237 197 253 294 283 277 294 306 309 306 233 230 176 146 180 205 159 225 135 134 159 318 237 123 176 205 215 223 220 220 217 229 253 319 316 307 270 255 259 260 249 254 240 243 251 235 237 240 231 227 225 234 244 232 249 239 245 228 186 179 178 176 180 183 187
334 333 331 330 331 328 328 327 325 324 324 321 311 336 65 6 353 318 319 269 245 245 244 247 208 214 238 276 275 306 326 302 272 296 226 144 134 131 208 128 187 221 238 177 172 262 141 182 226 222 223 215 218 234 272 282 282 270 281 286 282 268 266 259 249 234 244 240 252 228 235 235 226 228 224 236 249 228 229 230 238 211 176 182 182 180 183 189
338 334 333 333 331 330 327 328 324 322 326 299 45 71 246 202 207 267 273 301 283 232 238 240 236 245 242 250 254 255 268 278 285 251 258 158 180 166 211 167 174 200 210 181 146 298 236 217 228 224 219 200 227 240 248 241 245 247 244 263 276 266 283 290 287 282 250 237 248 230 219 229 228 225 222 222 231 238 218 212 223 230 179 190 190 184 178 166
337 336 332 332 332 327 327 325 325 321 336 33 8 255 239 220 343 273 213 275 283 239 223 234 234 239 252 260 266 254 261 246 270 267 217 143 156 193 152 183 193 197 193 159 191 194 270 249 246 262 162 202 239 229 232 246 252 248 237 238 244 262 258 270 262 268 264 249 249 239 238 240 231 228 225 220 220 234 234 206 223 221 222 185 192 182 172 169
337 336 333 333 329 328 323 325 320 330 340 298 278 253 272 334 316 17 41 276 309 316 205 223 205 214 240 224 213 190 210 227 193 274 233 189 192 182 180 180 188 188 200 183 187 209 234 254 63 146 192 202 224 224 219 228 247 243 242 240 245 250 251 249 294 298 309 287 247 255 253 254 218 221 224 223 223 224 238 229 214 229 230 208 182 183 175 170
336 335 333 330 328 324 324 319 330 323 322 311 236 274 66 158 188 97 61 315 265 265 231 228 189 206 241 198 231 216 184 242 224 248 221 178 198 154 211 183 180 209 183 190 211 219 241 253 256 256 222 211 221 231 222 210 241 257 246 240 246 250 263 270 271 274 300 304 251 213 238 240 221 222 218 212 219 227 229 233 223 220 219 187 157 185 184 176
335 333 331 331 326 329 321 326 281 337 326 280 318 308 345 45 38 84 96 343 313 269 259 96 172 253 68 269 135 184 208 244 204 228 243 205 188 220 161 223 161 220 197 192 211 220 240 237 223 230 236 242 218 224 220 210 238 236 237 222 247 254 254 260 262 263 261 242 293 230 234 261 297 224 220 210 212 219 225 233 235 224 217 199 169 175 176 177
333 332 331 328 327 330 359 284 312 338 335 289 340 338 350 359 71 66 56 327 20 254 149 233 76 16 89 236 249 90 253 262 349 304 244 84 227 34 222 214 184 190 130 123 190 232 217 227 213 228 231 228 233 231 222 207 220 239 250 243 244 240 244 247 254 250 265 318 306 296 262 245 249 229 206 206 214 219 222 226 232 230 217 196 183 177 177 181
332 329 329 328 320 322 223 287 324 306 242 251 314 326 345 334 59 54 98 55 10 289 98 270 213 318 265 358 87 123 235 303 313 265 174 229 104 326 218 197 203 166 170 184 226 102 147 186 216 240 224 231 232 218 202 200 217 232 218 235 253 256 249 250 253 254 259 303 278 283 277 254 231 244 197 194 213 217 217 218 220 225 227 212 187 188 182 180
330 330 328 322 322 307 249 191 215 254 243 280 316 315 338 44 77 93 102 114 64 40 214 8 261 312 306 281 309 147 260 201 218 272 38 356 35 130 251 201 194 201 111 112 243 315 250 220 199 218 188 218 218 223 200 196 224 228 241 254 269 270 272 260 250 242 245 237 261 256 251 251 257 200 204 205 209 212 215 213 212 215 214 222 200 186 183 178
328 327 323 323 330 341 71 192 233 242 271 287 291 301 10 60 42 30 33 296 28 297 199 239 72 269 321 319 273 273 250 224 325 347 16 7 301 357 342 112 103 19 345 146 254 247 262 292 301 260 212 214 215 228 223 230 238 296 226 229 246 261 263 274 259 215 224 243 244 251 249 229 282 238 204 199 212 205 205 213 214 217 219 218 196 180 182 177
326 323 316 321 285 254 0 265 249 251 255 271 279 1 30 34 102 100 64 240 46 255 19 341 264 3 317 323 305 251 252 202 313 87 262 196 278 346 69 19 96 147 252 213 227 246 256 261 258 239 252 258 154 242 209 240 312 294 242 215 235 259 266 264 262 173 207 244 242 244 244 225 239 241 240 217 189 200 200 204 206 207 216 218 195 184 182 177
325 316 311 309 209 206 168 222 238 325 288 237 59 26 53 17 10 88 257 296 303 287 304 288 314 287 285 292 277 279 287 168 196 195 210 191 195 175 214 175 150 155 232 205 248 186 235 236 245 264 160 226 213 220 255 252 250 246 252 228 195 234 180 246 197 205 209 228 228 236 235 259 240 237 249 240 203 200 201 203 201 206 213 213 189 184 180 177
322 314 311 282 205 193 235 247 294 304 341 39 50 44 49 89 10 260 279 350 250 120 286 176 256 278 298 309 270 267 241 277 179 220 190 135 191 254 209 185 180 175 182 210 226 279 275 278 247 250 253 195 174 188 190 264 227 222 230 207 196 207 206 215 193 219 237 240 250 247 217 252 278 269 208 211 210 199 195 199 202 208 212 205 186 182 178 177
319 316 314 214 190 203 223 221 249 269 337 32 62 17 150 59 271 268 282 226 266 277 293 278 300 294 292 249 272 140 344 223 170 220 168 93 28 273 269 239 223 247 202 153 183 188 252 287 253 205 244 169 200 206 190 204 191 221 228 220 214 220 198 193 186 203 216 190 237 230 227 220 165 230 200 201 199 200 195 197 202 212 209 196 183 179 176 175
317 302 252 267 222 231 223 229 250 171 75 63 43 71 50 324 251 287 268 291 286 304 264 252 293 297 302 255 248 111 161 297 185 89 100 137 210 194 197 221 213 208 134 158 225 134 215 237 247 206 214 159 204 203 200 206 270 250 232 235 235 221 248 253 206 245 184 199 250 223 212 203 221 214 206 195 188 205 200 199 201 209 206 184 175 175 173 170
323 309 211 244 195 246 192 203 194 103 90 58 67 23 68 201 263 179 275 221 277 287 293 291 250 278 243 284 12 41 215 153 242 120 260 208 200 194 212 209 198 195 180 195 152 201 183 251 204 223 222 208 209 192 201 182 212 206 208 224 228 224 232 272 303 246 148 163 253 199 223 247 291 306 200 200 197 196 199 202 204 205 191 166 176 174 170 169
332 328 8 261 219 199 162 151 143 94 67 88 75 300 225 269 226 219 251 249 262 222 315 320 324 151 290 293 278 308 195 116 275 167 277 187 277 223 206 218 197 191 209 177 247 200 184 253 157 156 246 242 224 214 204 192 215 165 206 220 245 248 253 226 245 276 193 192 246 208 220 234 196 252 239 191 195 203 199 200 200 198 171 168 176 173 171 171
315 309 261 268 228 151 131 138 105 65 80 72 202 254 225 242 247 219 209 261 15 141 239 245 272 121 266 351 279 259 209 148 272 147 250 177 268 199 194 210 200 207 204 197 200 222 176 272 253 227 237 243 226 211 209 204 199 220 210 116 208 177 221 233 275 276 229 214 274 276 193 223 199 242 218 219 202 199 203 203 199 193 173 173 176 175 173 169
257 345 348 270 166 136 129 114 80 82 59 27 249 309 243 232 246 242 229 168 163 110 214 229 220 240 236 226 265 293 248 235 248 231 16 211 200 207 194 196 200 203 202 192 207 175 163 229 272 122 266 257 188 177 204 194 196 213 230 246 174 200 282 214 203 243 269 236 204 288 213 223 204 215 200 204 212 208 199 198 199 189 176 176 175 171 167 164
13 22 303 331 117 117 119 95 72 45 97 246 235 234 251 285 272 266 239 131 249 151 242 275 211 267 240 248 245 283 289 247 254 256 180 219 215 214 202 189 216 193 199 192 177 135 90 104 272 176 256 302 186 195 200 192 184 197 205 223 212 235 203 195 254 230 220 198 204 212 244 262 240 208 192 201 204 212 194 194 197 185 176 175 174 167 166 167
292 107 291 114 123 118 96 72 61 189 216 251 205 258 304 264 286 271 169 187 222 188 212 223 247 219 285 328 282 294 289 281 275 262 221 237 193 284 209 195 196 154 122 117 102 136 121 179 237 283 293 239 273 189 185 185 202 184 197 216 204 207 238 228 265 235 238 263 244 196 244 262 252 181 197 194 199 205 191 179 187 179 173 175 173 169 166 167
25 42 0 187 143 126 100 13 265 184 239 263 254 197 281 262 270 293 287 198 206 253 189 258 253 248 254 256 247 280 268 278 240 247 247 208 240 212 260 198 185 146 147 178 198 185 175 191 242 252 231 217 269 215 178 186 188 197 191 221 209 235 221 237 258 283 311 244 224 177 247 271 232 192 201 204 196 197 181 174 177 176 173 172 171 169 169 165
33 221 282 159 193 135 67 285 256 244 236 242 260 269 270 296 276 288 302 188 263 127 252 235 224 257 232 216 248 265 279 264 255 226 270 297 261 218 321 224 174 160 148 123 143 169 164 269 240 253 268 180 201 270 195 133 100 174 231 212 211 239 233 230 250 320 313 301 307 302 265 254 272 224 197 204 202 187 181 175 173 168 166 166 166 165 159 161
291 281 318 231 207 57 75 267 309 310 295 308 320 294 298 269 287 301 267 297 257 220 222 240 300 225 280 233 232 256 276 313 275 260 302 285 291 298 343 350 169 154 152 181 180 161 202 193 230 279 27 34 358 170 153 132 122 171 208 227 228 247 258 267 276 250 250 241 233 229 240 272 274 309 275 214 186 178 185 188 166 158 161 161 163 161 160 159
279 250 223 290 250 263 227 190 222 298 312 315 319 308 316 294 251 292 244 262 199 229 172 253 204 275 262 283 280 260 259 247 283 292 269 271 280 319 293 280 319 251 197 172 183 152 207 203 178 0 88 102 128 154 151 169 188 182 225 235 246 247 258 294 280 274 259 283 221 230 271 257 275 315 289 178 172 184 193 181 170 153 154 157 159 157 158 161
17 27 310 351 350 313 271 224 274 289 306 325 319 291 302 309 312 281 146 255 221 227 208 277 14 276 258 265 284 280 280 214 212 297 349 309 313 289 258 290 297 238 180 173 168 153 222 189 218 187 134 136 207 215 285 21 124 201 212 221 242 254 249 248 270 269 254 286 309 260 236 294 311 344 319 230 170 175 179 167 152 149 153 155 158 158 161 166
270 60 351 331 316 321 275 301 325 10 288 318 297 306 324 321 311 316 155 306 168 221 265 217 232 309 272 302 298 297 254 279 243 270 270 269 244 252 283 283 281 205 171 169 162 150 95 335 267 227 232 220 213 206 233 231 183 188 206 265 294 263 265 266 225 246 258 328 295 257 302 247 264 292 333 300 223 175 167 159 150 149 153 155 159 161 164 166
56 310 89 114 277 283 338 317 4 319 307 319 259 300 314 333 343 337 326 201 151 52 356 291 204 228 249 278 303 297 301 298 231 240 290 245 272 284 300 285 214 150 143 139 180 172 148 196 280 224 304 250 238 227 219 210 202 179 173 187 246 269 283 277 264 245 275 224 251 278 339 314 272 265 281 247 236 195 166 160 156 154 153 152 154 157 163 165
82 319 22 12 15 291 283 290 309 284 292 296 256 348 340 341 332 325 311 310 337 306 122 306 323 326 328 18 144 231 294 329 327 261 254 279 283 310 319 326 68 118 195 151 325 141 97 255 217 301 295 290 264 207 190 217 193 163 140 193 234 258 275 248 257 271 292 283 271 287 307 284 256 277 293 277 235 185 167 143 138 142 147 150 153 157 163 164
14 359 327 340 232 283 282 282 270 292 300 340 5 337 337 332 330 330 335 325 314 328 161 302 314 323 321 349 160 215 220 216 246 272 281 292 317 207 257 202 268 171 160 148 190 264 100 283 3 334 347 298 294 272 211 198 128 90 201 207 239 258 278 271 313 304 299 301 298 300 309 310 278 260 285 291 157 117 116 137 147 148 147 152 156 162 164 170
288 189 245 322 317 264 274 295 313 302 328 353 10 343 334 330 324 325 304 287 241 314 329 314 301 307 305 313 198 228 254 253 254 237 233 253 251 253 44 292 17 341 317 62 19 326 58 258 25 37 33 316 315 359 329 110 91 99 266 260 277 304 297 297 292 260 14 280 274 301 349 305 299 327 303 346 130 131 140 144 147 151 155 154 160 165 169 173
309 299 341 179 287 306 343 317 303 328 9 25 350 328 334 309 308 327 324 288 311 283 259 295 298 307 311 334 312 312 314 296 267 254 232 231 231 252 244 258 275 263 294 189 151 66 192 132 25 349 49 261 277 7 342 77 51 354 282 239 210 229 236 301 301 293 193 215 286 100 243 237 277 311 312 22 91 132 141 152 150 155 159 160 163 168 173 173